Regional Weather Roundup
Issued by NWS

Home | Current Version | Previous Version | Text Only | Print | Product List | Glossary Off
Versions: 1 2 3 4 5 6 7 8 9 10 11 12 13 14 15 16 17 18 19 20 21 22 23 24 25 26 27 28 29 30 31 32 33 34 35 36 37 38 39 40 41 42 43 44 45 46 47 48 49 50

000
ASUS43 KLSX 240159
RWRMO

WEATHER SUMMARY FOR MISSOURI
NATIONAL WEATHER SERVICE SPRINGFIELD MO
900 PM CDT THU MAR 23 2017

NOTE: "FAIR" INDICATES FEW OR NO CLOUDS BELOW 12,000 FEET WITH NO
       SIGNIFICANT WEATHER AND/OR OBSTRUCTIONS TO VISIBILITY.
       CURRENT SKY AND/OR WEATHER CONDITIONS ARE NOT AVAILABLE FOR
       CHILLICOTHE AND FARMINGTON.

MOZ001>031-035>038-043-044-053-054-240300-
...NORTHERN AND WESTERN MISSOURI...

CITY           SKY/WX    TMP DP  RH WIND       PRES   REMARKS
KANSAS CTY INT PTCLDY    71  45  39 S21       29.78R
KANSAS C DTWN  PTCLDY    74  44  34 S14G25    29.78R
LEE`S SUMMIT   CLEAR     71  46  40 S15       29.81R
ST JOSEPH      MOCLDY    72  47  40 S18       29.75R
CHILLICOTHE      N/A     72  48  42 S10G20    29.81S
KIRKSVILLE     CLEAR     56  32  40 SE13      29.86R

$$
MOZ066>068-077>081-088>096-101>105-240300-
...SOUTHWEST MISSOURI...

CITY           SKY/WX    TMP DP  RH WIND       PRES   REMARKS
SPRINGFIELD    CLEAR     70  48  45 S20G30    29.92R
JOPLIN         CLEAR     71  48  43 S12G23    29.87S
BRANSON        PTCLDY    66  50  55 SE10      29.98S

$$
MOZ032>034-039>042-045>050-055>058-069>072-240300-
...CENTRAL MISSOURI...

CITY           SKY/WX    TMP DP  RH WIND       PRES   REMARKS
COLUMBIA       CLEAR     71  51  49 S18G28    29.90R
JEFFERSON CITY CLEAR     74  50  42 SE14      29.90R
ROLLA          CLEAR     66  50  56 S18G31    29.96R
SEDALIA        CLEAR     72  48  42 S18       29.87R
WARRENSBURG    CLEAR     68  45  42 SE8       29.83R
OSAGE BEACH    CLEAR    N/A N/A N/A S16G24    29.93R

$$
MOZ051-052-059>065-240300-
...EAST CENTRAL MISSOURI...

CITY           SKY/WX    TMP DP  RH WIND       PRES   REMARKS
ST LOUIS INTL  PTCLDY    61  42  49 SE18G29   30.01S
SPIRIT OF STL  CLEAR     61  43  51 SE8       29.99R
ST CHARLES     CLEAR     55  44  66 SE14      30.00R

$$
MOZ072>076-082>087-097>100-106>115-240300-
...SOUTH CENTRAL AND SOUTHEAST MISSOURI...

CITY           SKY/WX    TMP DP  RH WIND       PRES   REMARKS
CAPE GIRARDEAU CLEAR     56  44  64 SE9       30.09S
FARMINGTON     CLEAR     57  45  64 S9        30.06F
POPLAR BLUFF   CLEAR     62  51  67 SE6       30.06F
WEST PLAINS    CLEAR     63  50  62 SE7       30.04S

$$




USA.gov is the U.S. government's official web portal to all federal, state and local government web resources and services.